Location: Unspecified
(42.3650°N, 71.1030°W)
Time: 13:58:04
(UTC+00:00)

deb Kosmos-249 - Visible Passes

Search period start: 04 October 2024 00:00
Search period end: 14 October 2024 00:00
Orbit: 504 x 1068 km, 62.0° (Epoch: 04 October)

Date Brightness Start Highest point End Pass type
(mag) Time Alt. Az. Time Alt. Az. Time Alt. Az.
04 Oct ? 07:06:58 42° ENE 07:06:58 42° ENE 07:11:40 10° NE visible
04 Oct ? 08:47:36 33° WNW 08:49:14 38° NW 08:55:40 10° NNE visible
05 Oct ? 06:35:47 27° ENE 06:35:47 27° ENE 06:38:58 10° NE visible
05 Oct ? 08:16:25 45° NW 08:16:30 45° NW 08:23:09 10° NNE visible
05 Oct ? 09:57:43 10° WNW 10:02:18 18° NNW 10:06:49 10° NNE visible
06 Oct ? 06:04:29 17° ENE 06:04:29 17° ENE 06:06:06 10° NE visible
06 Oct ? 07:45:05 47° N 07:45:05 47° N 07:50:33 10° NNE visible
06 Oct ? 09:25:42 14° WNW 09:29:16 20° NNW 09:34:11 10° NNE visible
07 Oct ? 05:33:02 10° ENE 05:33:02 10° ENE 05:33:04 10° ENE visible
07 Oct ? 07:13:38 38° NNE 07:13:38 38° NNE 07:17:50 10° NE visible
07 Oct ? 08:54:14 20° NW 08:56:11 23° NNW 09:01:29 10° NNE visible
08 Oct ? 06:42:05 27° NE 06:42:05 27° NE 06:45:01 10° NE visible
08 Oct ? 08:22:41 26° NW 08:23:02 26° NNW 08:28:43 10° NNE visible
08 Oct ? 10:05:59 10° NW 10:09:30 14° N 10:12:56 10° NNE visible
09 Oct ? 06:10:24 19° NE 06:10:24 19° NE 06:12:06 10° NE visible
09 Oct ? 07:51:00 29° NNW 07:51:00 29° NNW 07:55:52 10° NNE visible
09 Oct ? 09:32:22 10° NW 09:36:07 15° N 09:39:50 10° NNE visible
10 Oct ? 05:38:37 12° NE 05:38:37 12° NE 05:39:02 10° NE visible
10 Oct ? 07:19:12 27° N 07:19:12 27° N 07:22:57 10° NNE visible
10 Oct ? 08:59:47 13° NW 09:02:41 16° NNW 09:06:44 10° NNE visible
11 Oct ? 06:47:19 23° NNE 06:47:19 23° NNE 06:49:56 10° NNE visible
11 Oct ? 08:27:53 17° NNW 08:29:11 18° NNW 08:33:36 10° NNE visible
11 Oct ? 10:12:32 10° NNW 10:16:00 14° N 10:19:21 10° NE visible
12 Oct ? 06:15:20 17° NNE 06:15:20 17° NNE 06:16:50 10° NNE visible
12 Oct ? 07:55:54 20° NNW 07:55:54 20° NNW 08:00:27 10° NNE visible
12 Oct ? 09:39:01 10° NNW 09:42:21 14° N 09:45:36 10° NNE visible
13 Oct ? 05:43:15 12° NNE 05:43:15 12° NNE 05:43:38 10° NNE visible
13 Oct ? 07:23:48 20° N 07:23:48 20° N 07:27:14 10° NNE visible
13 Oct ? 09:05:17 10° NNW 09:08:37 14° N 09:11:53 10° NNE visible
